Location: TAAA CAC
(31.8680°N, 109.5150°W)
Time: 21:29:45
(UTC-07:00)

BlueWalker 3 - Pass Details

Date: 21 March 2026
Orbit: 449 x 457 km, 53.2° (Epoch: 20 April)

Event Time Altitude Azimuth Distance (km) Brightness Sun altitude
Rises 20:51:54 0° 263° (W) 2,453 6.3 -30.1°
Reaches altitude 10° 20:54:44 10° 287° (WNW) 1,585 5.4 -30.7°
Enters shadow 20:56:22 15° 314° (NW) 1,324 4.7 -31.0°
